Date String (YYYY-MM-DD hh:mm:ss) UTC,Instrument flags,Ambient pressure (hPa),Sample flow (lpm),Bypass flow (lpm),Sample temperature (°C),Ambient temperature (°C),ASC tube jacket temperature (°C),LED temperature (°C),Box temperature (°C),Sample RH (%),Span deviation,Mass concentration (μg/m³),Mass concentration (μg/m³),Mass concentration (μg/m³)
DateTimeUTC,F1_M11,P_M11,Q1_M11,Q2_M11,T1_M11,T2_M11,T3_M11,T4_M11,T5_M11,U1_M11,ZSPAN_M11,X0_M11,X2_M11,X1_M11
2023-04-13 16:00:00,,0817.4,5.01,0.00,28.0,26.3,00.0,36.4,29.5,13.8,0000.0,0012.29,0004.18,0002.70
2023-04-13 16:01:00,,0817.3,5.00,0.00,28.0,26.3,00.0,36.4,29.5,13.9,0000.0,0012.33,0004.20,0002.69
2023-04-13 16:02:00,,0817.4,4.99,0.00,28.0,26.4,00.0,36.4,29.5,13.6,0000.0,0012.75,0004.23,0002.69
2023-04-13 16:03:00,,0817.4,5.00,0.00,28.0,26.3,00.0,36.4,29.5,13.6,0000.0,0012.84,0004.22,0002.70
2023-04-13 16:04:00,,0817.3,5.01,0.00,28.0,26.3,00.0,36.4,29.5,13.6,0000.0,0012.33,0004.25,0002.70
2023-04-13 16:05:00,,0817.3,5.00,0.00,28.0,26.4,00.0,36.4,29.5,13.9,0000.0,0012.38,0004.25,0002.71
2023-04-13 16:06:00,,0817.3,5.00,0.00,28.0,26.4,00.0,36.4,29.6,14.2,0000.0,0011.64,0004.23,0002.71
2023-04-13 16:07:00,,0817.3,5.00,0.00,28.0,26.4,00.0,36.4,29.6,14.2,0000.0,0011.64,0004.27,0002.73
2023-04-13 16:08:00,,0817.3,5.00,0.00,28.0,26.4,00.0,36.4,29.5,14.4,0000.0,0012.10,0004.31,0002.75
2023-04-13 16:09:00,,0817.2,5.01,0.00,28.0,26.4,00.0,36.4,29.5,14.5,0000.0,0012.11,0004.36,0002.76
2023-04-13 16:10:00,,0817.2,5.00,0.00,28.0,26.4,00.0,36.4,29.5,14.8,0000.0,0012.72,0004.40,0002.78
2023-04-13 16:11:00,,0817.2,5.00,0.00,28.0,26.4,00.0,36.4,29.5,14.7,0000.0,0014.04,0004.42,0002.80
2023-04-13 16:12:00,,0817.2,5.00,0.00,28.0,26.3,00.0,36.4,29.5,14.4,0000.0,0014.37,0004.43,0002.85
2023-04-13 16:13:00,,0817.2,4.99,0.00,28.0,26.3,00.0,36.4,29.5,14.3,0000.0,0014.33,0004.42,0002.88
2023-04-13 16:14:00,,0817.2,5.00,0.00,28.0,26.3,00.0,36.4,29.5,14.3,0000.0,0015.67,0004.57,0002.89
2023-04-13 16:15:00,,0817.2,5.01,0.00,28.0,26.3,00.0,36.4,29.5,14.2,0000.0,0016.33,0004.63,0002.90
2023-04-13 16:16:00,,0817.1,5.00,0.00,28.0,26.3,00.0,36.3,29.5,14.2,0000.0,0016.66,0004.68,0002.91
2023-04-13 16:17:00,,0817.1,4.99,0.00,28.0,26.3,00.0,36.3,29.5,14.2,0000.0,0017.94,0004.74,0002.95
2023-04-13 16:18:00,,0817.0,5.00,0.00,27.9,26.3,00.0,36.3,29.4,14.2,0000.0,0019.02,0004.81,0002.96
2023-04-13 16:19:00,,0817.1,5.01,0.00,27.9,26.2,00.0,36.3,29.5,14.4,0000.0,0019.87,0004.84,0002.97
2023-04-13 16:20:00,,0817.1,5.01,0.00,27.9,26.2,00.0,36.3,29.5,14.4,0000.0,0020.10,0004.85,0002.96
2023-04-13 16:21:00,,0817.1,5.01,0.00,27.9,26.2,00.0,36.3,29.4,14.4,0000.0,0020.42,0004.83,0002.95
2023-04-13 16:22:00,,0817.1,4.99,0.00,27.9,26.2,00.0,36.3,29.4,14.6,0000.0,0019.59,0004.88,0002.97
2023-04-13 16:23:00,,0817.1,5.00,0.00,27.9,26.2,00.0,36.3,29.4,14.9,0000.0,0019.77,0004.90,0002.96
2023-04-13 16:24:00,,0817.1,5.00,0.00,27.9,26.3,00.0,36.3,29.4,14.5,0000.0,0021.37,0004.91,0002.95
2023-04-13 16:25:00,,0817.1,5.00,0.00,27.9,26.3,00.0,36.3,29.4,14.6,0000.0,0021.08,0004.83,0002.97
2023-04-13 16:26:00,,0817.1,5.01,0.00,27.9,26.2,00.0,36.3,29.4,14.5,0000.0,0021.54,0004.79,0002.99
2023-04-13 16:27:00,,0817.0,5.00,0.00,27.9,26.2,00.0,36.3,29.4,14.6,0000.0,0023.00,0004.77,0003.00
2023-04-13 16:28:00,,0817.0,4.99,0.00,27.9,26.2,00.0,36.3,29.4,14.3,0000.0,0021.99,0004.75,0002.99
2023-04-13 16:29:00,,0817.0,5.01,0.00,27.9,26.2,00.0,36.3,29.4,14.5,0000.0,0020.66,0004.67,0002.99
2023-04-13 16:30:00,,0817.0,5.01,0.00,27.9,26.2,00.0,36.3,29.4,14.5,0000.0,0019.89,0004.62,0002.99
2023-04-13 16:31:00,,0816.9,5.00,0.00,27.9,26.2,00.0,36.3,29.4,14.7,0000.0,0020.44,0004.63,0003.01
2023-04-13 16:32:00,,0816.9,5.00,0.00,27.9,26.2,00.0,36.3,29.4,14.6,0000.0,0020.12,0004.63,0003.02
2023-04-13 16:33:00,,0817.0,5.00,0.00,27.9,26.2,00.0,36.3,29.4,14.8,0000.0,0019.66,0004.53,0003.00
2023-04-13 16:34:00,,0816.9,5.00,0.00,27.9,26.2,00.0,36.3,29.4,14.5,0000.0,0019.76,0004.44,0003.00
2023-04-13 16:35:00,,0816.9,5.00,0.00,27.9,26.2,00.0,36.3,29.4,14.6,0000.0,0018.20,0004.44,0003.01
2023-04-13 16:36:00,,0816.9,5.01,0.00,27.9,26.2,00.0,36.3,29.4,14.4,0000.0,0017.44,0004.38,0002.99
2023-04-13 16:37:00,,0817.0,5.01,0.00,27.9,26.2,00.0,36.3,29.4,14.1,0000.0,0016.49,0004.37,0002.98
2023-04-13 16:38:00,,0816.9,5.01,0.00,27.9,26.2,00.0,36.3,29.4,14.2,0000.0,0015.17,0004.34,0002.97
2023-04-13 16:39:00,,0816.9,5.01,0.00,27.8,26.2,00.0,36.2,29.4,14.3,0000.0,0015.44,0004.32,0002.95
2023-04-13 16:40:00,,0816.9,5.00,0.00,27.8,26.2,00.0,36.2,29.4,14.4,0000.0,0016.07,0004.30,0002.94
2023-04-13 16:41:00,,0816.9,4.99,0.00,27.8,26.2,00.0,36.2,29.4,14.3,0000.0,0016.64,0004.27,0002.92
2023-04-13 16:42:00,,0816.9,5.00,0.00,27.8,26.1,00.0,36.2,29.3,14.1,0000.0,0017.17,0004.24,0002.91
2023-04-13 16:43:00,,0816.9,5.01,0.00,27.8,26.1,00.0,36.2,29.3,14.3,0000.0,0017.08,0004.21,0002.91
2023-04-13 16:44:00,,0816.9,5.00,0.00,27.8,26.1,00.0,36.2,29.3,14.3,0000.0,0018.02,0004.27,0002.90
2023-04-13 16:45:00,,0816.8,5.00,0.00,27.8,26.1,00.0,36.2,29.3,14.3,0000.0,0018.19,0004.36,0002.92
2023-04-13 16:46:00,,0816.8,4.99,0.00,27.8,26.1,00.0,36.2,29.3,14.5,0000.0,0019.20,0004.34,0002.91
2023-04-13 16:47:00,,0816.9,4.99,0.00,27.8,26.0,00.0,36.2,29.3,14.5,0000.0,0020.06,0004.38,0002.92
2023-04-13 16:48:00,,0816.8,5.00,0.00,27.7,26.1,00.0,36.2,29.3,14.3,0000.0,0019.83,0004.44,0002.91
2023-04-13 16:49:00,,0816.8,5.00,0.00,27.8,26.1,00.0,36.2,29.3,14.4,0000.0,0019.53,0004.45,0002.92
2023-04-13 16:50:00,,0816.9,5.01,0.00,27.8,26.1,00.0,36.2,29.3,14.3,0000.0,0020.39,0004.43,0002.93
2023-04-13 16:51:00,,0816.9,5.01,0.00,27.8,26.1,00.0,36.2,29.3,14.6,0000.0,0021.65,0004.41,0002.93
2023-04-13 16:52:00,,0816.9,5.00,0.00,27.8,26.1,00.0,36.2,29.3,14.5,0000.0,0020.82,0004.40,0002.93
2023-04-13 16:53:00,,0816.9,5.00,0.00,27.8,26.1,00.0,36.2,29.3,14.1,0000.0,0020.50,0004.39,0002.93
2023-04-13 16:54:00,,0816.9,5.00,0.00,27.8,26.2,00.0,36.2,29.3,14.2,0000.0,0020.55,0004.39,0002.91
2023-04-13 16:55:00,,0816.9,4.99,0.00,27.8,26.2,00.0,36.2,29.3,14.2,0000.0,0020.63,0004.36,0002.89
2023-04-13 16:56:00,,0816.8,4.99,0.00,27.8,26.2,00.0,36.2,29.3,14.1,0000.0,0019.60,0004.32,0002.88
2023-04-13 16:57:00,,0816.7,5.00,0.00,27.8,26.2,00.0,36.2,29.3,13.9,0000.0,0018.54,0004.33,0002.86
2023-04-13 16:58:00,,0816.7,5.00,0.00,27.8,26.2,00.0,36.2,29.3,13.4,0000.0,0017.44,0004.29,0002.82
2023-04-13 16:59:00,,0816.8,5.01,0.00,27.8,26.2,00.0,36.2,29.3,13.1,0000.0,0017.65,0004.28,0002.82
